• In Belgien
  • Länderverzeichnis
  • Für 7 Tage
  • Wassertemperatur
  • Satellitenkarten
  • Wetterkarte
  • Widgets
  • user-avatar
    Anmelden

    Stündliche Wetter Brisbane

    Heute, 22 August, Dienstag

    Zeit Temperatur Niederschläge Wind Luftdruck Luftfeuchtigkeit
    00:00 +16°C° 0,2 mm 2 m/S 763 mmHg 83%
    01:00 +16°C° 0,2 mm 3 m/S 763 mmHg 84%
    02:00 +14°C° 0 mm 3 m/S 762 mmHg 84%
    03:00 +14°C° 0 mm 3 m/S 762 mmHg 84%
    04:00 +14°C° 0 mm 3 m/S 762 mmHg 86%
    05:00 +14°C° 0 mm 3 m/S 762 mmHg 85%
    06:00 +16°C° 0 mm 3 m/S 762 mmHg 85%
    07:00 +16°C° 0 mm 3 m/S 762 mmHg 84%
    08:00 +18°C° 0 mm 3 m/S 762 mmHg 75%
    09:00 +20°C° 0 mm 4 m/S 762 mmHg 65%
    10:00 +23°C° 0 mm 4 m/S 762 mmHg 56%
    11:00 +25°C° 0 mm 4 m/S 762 mmHg 49%
    12:00 +27°C° 0 mm 4 m/S 761 mmHg 43%
    13:00 +28°C° 0 mm 4 m/S 761 mmHg 36%
    14:00 +27°C° 0 mm 4 m/S 760 mmHg 39%
    15:00 +27°C° 0 mm 5 m/S 760 mmHg 41%
    16:00 +26°C° 0 mm 5 m/S 760 mmHg 44%
    17:00 +25°C° 0,1 mm 5 m/S 760 mmHg 51%
    18:00 +22°C° 0,1 mm 5 m/S 761 mmHg 57%
    19:00 +20°C° 0,1 mm 5 m/S 761 mmHg 64%
    20:00 +19°C° 0 mm 4 m/S 761 mmHg 65%
    21:00 +18°C° 0 mm 4 m/S 762 mmHg 66%
    22:00 +17°C° 0 mm 4 m/S 762 mmHg 67%
    23:00 +15°C° 0 mm 4 m/S 762 mmHg 68%

    Morgen, 23 August, Mittwoch

    Zeit Temperatur Niederschläge Wind Luftdruck Luftfeuchtigkeit
    00:00 +16°C° 0 mm 3 m/S 762 mmHg 70%
    01:00 +14°C° 0 mm 3 m/S 763 mmHg 71%
    02:00 +13°C° 0 mm 3 m/S 763 mmHg 72%
    03:00 +13°C° 0 mm 3 m/S 762 mmHg 73%
    04:00 +13°C° 0 mm 2 m/S 762 mmHg 74%
    05:00 +13°C° 0 mm 2 m/S 763 mmHg 74%
    06:00 +14°C° 0 mm 2 m/S 763 mmHg 73%
    07:00 +14°C° 0 mm 2 m/S 763 mmHg 73%
    08:00 +18°C° 0 mm 1 m/S 763 mmHg 64%
    09:00 +22°C° 0 mm 1 m/S 763 mmHg 54%
    10:00 +25°C° 0 mm 1 m/S 763 mmHg 45%
    11:00 +27°C° 0 mm 1 m/S 762 mmHg 39%
    12:00 +28°C° 0 mm 1 m/S 762 mmHg 33%
    13:00 +29°C° 0 mm 1 m/S 761 mmHg 27%
    14:00 +29°C° 0 mm 2 m/S 761 mmHg 29%
    15:00 +28°C° 0 mm 2 m/S 760 mmHg 31%
    16:00 +28°C° 0 mm 3 m/S 760 mmHg 34%
    17:00 +25°C° 0 mm 3 m/S 760 mmHg 47%
    18:00 +22°C° 0 mm 3 m/S 761 mmHg 60%
    19:00 +19°C° 0 mm 3 m/S 761 mmHg 74%
    20:00 +19°C° 0 mm 2 m/S 761 mmHg 78%
    21:00 +18°C° 0 mm 2 m/S 761 mmHg 82%
    22:00 +18°C° 0 mm 2 m/S 761 mmHg 86%
    23:00 +17°C° 0 mm 2 m/S 761 mmHg 86%

    übermorgen, 24 August, Donnerstag

    Zeit Temperatur Niederschläge Wind Luftdruck Luftfeuchtigkeit
    00:00 +17°C° 0 mm 2 m/S 761 mmHg 87%
    01:00 +16°C° 0 mm 2 m/S 760 mmHg 87%
    02:00 +16°C° 0 mm 2 m/S 760 mmHg 86%
    03:00 +16°C° 0 mm 2 m/S 760 mmHg 85%
    04:00 +15°C° 0 mm 2 m/S 760 mmHg 84%
    05:00 +15°C° 0 mm 2 m/S 760 mmHg 81%
    06:00 +15°C° 0 mm 2 m/S 760 mmHg 78%
    07:00 +16°C° 0 mm 2 m/S 760 mmHg 75%
    08:00 +19°C° 0 mm 2 m/S 760 mmHg 62%
    09:00 +23°C° 0 mm 2 m/S 760 mmHg 50%
    10:00 +26°C° 0 mm 3 m/S 760 mmHg 37%
    11:00 +27°C° 0,3 mm 3 m/S 759 mmHg 36%
    12:00 +28°C° 0,3 mm 3 m/S 758 mmHg 35%
    13:00 +29°C° 0,3 mm 3 m/S 757 mmHg 33%
    14:00 +29°C° 0,1 mm 3 m/S 757 mmHg 31%
    15:00 +29°C° 0,1 mm 3 m/S 757 mmHg 28%
    16:00 +29°C° 0,1 mm 4 m/S 757 mmHg 26%
    17:00 +26°C° 0,5 mm 3 m/S 757 mmHg 33%
    18:00 +24°C° 0,5 mm 3 m/S 758 mmHg 39%
    19:00 +20°C° 0,5 mm 3 m/S 758 mmHg 46%
    20:00 +19°C° 0,1 mm 3 m/S 759 mmHg 51%
    21:00 +18°C° 0,1 mm 3 m/S 759 mmHg 57%
    22:00 +17°C° 0,1 mm 3 m/S 759 mmHg 62%
    23:00 +17°C° 0,1 mm 4 m/S 759 mmHg 64%

    25 August, Freitag

    Zeit Temperatur Niederschläge Wind Luftdruck Luftfeuchtigkeit
    00:00 +15°C° 0,1 mm 4 m/S 759 mmHg 66%
    01:00 +14°C° 0,1 mm 4 m/S 759 mmHg 68%
    02:00 +14°C° 0 mm 4 m/S 759 mmHg 72%
    03:00 +13°C° 0 mm 4 m/S 759 mmHg 76%
    04:00 +13°C° 0 mm 4 m/S 759 mmHg 81%
    05:00 +13°C° 0 mm 4 m/S 760 mmHg 80%
    06:00 +12°C° 0 mm 4 m/S 761 mmHg 80%
    07:00 +12°C° 0 mm 4 m/S 761 mmHg 79%
    08:00 +15°C° 0 mm 4 m/S 761 mmHg 68%
    09:00 +18°C° 0 mm 4 m/S 761 mmHg 56%
    10:00 +20°C° 0 mm 4 m/S 761 mmHg 45%
    11:00 +21°C° 0,1 mm 4 m/S 761 mmHg 39%
    12:00 +22°C° 0,1 mm 4 m/S 760 mmHg 34%
    13:00 +24°C° 0,1 mm 3 m/S 760 mmHg 29%
    14:00 +24°C° 0,1 mm 3 m/S 760 mmHg 31%
    15:00 +22°C° 0,1 mm 4 m/S 760 mmHg 32%
    16:00 +21°C° 0,1 mm 4 m/S 760 mmHg 34%
    17:00 +20°C° 0,1 mm 4 m/S 761 mmHg 41%
    18:00 +18°C° 0,1 mm 4 m/S 761 mmHg 48%
    19:00 +16°C° 0,1 mm 5 m/S 762 mmHg 55%
    20:00 +15°C° 0 mm 5 m/S 763 mmHg 59%
    21:00 +14°C° 0 mm 5 m/S 763 mmHg 63%
    22:00 +14°C° 0 mm 5 m/S 764 mmHg 68%
    23:00 +13°C° 0 mm 5 m/S 764 mmHg 67%

    26 August, Samstag

    Zeit Temperatur Niederschläge Wind Luftdruck Luftfeuchtigkeit
    00:00 +13°C° 0 mm 5 m/S 764 mmHg 67%
    01:00 +12°C° 0 mm 5 m/S 764 mmHg 66%
    02:00 +12°C° 0 mm 5 m/S 764 mmHg 68%
    03:00 +10°C° 0 mm 5 m/S 764 mmHg 69%
    04:00 +10°C° 0 mm 5 m/S 764 mmHg 70%
    05:00 +10°C° 0 mm 5 m/S 764 mmHg 70%
    06:00 +11°C° 0 mm 4 m/S 765 mmHg 70%
    07:00 +11°C° 0 mm 4 m/S 765 mmHg 70%
    08:00 +14°C° 0 mm 4 m/S 765 mmHg 62%
    09:00 +17°C° 0 mm 4 m/S 765 mmHg 55%
    10:00 +20°C° 0 mm 4 m/S 765 mmHg 47%
    11:00 +21°C° 0 mm 4 m/S 765 mmHg 42%
    12:00 +22°C° 0 mm 4 m/S 764 mmHg 37%
    13:00 +23°C° 0 mm 4 m/S 763 mmHg 32%
    14:00 +23°C° 0 mm 4 m/S 763 mmHg 34%
    15:00 +23°C° 0 mm 5 m/S 763 mmHg 35%
    16:00 +23°C° 0 mm 5 m/S 763 mmHg 36%
    17:00 +21°C° 0 mm 5 m/S 764 mmHg 45%
    18:00 +19°C° 0 mm 5 m/S 765 mmHg 53%
    19:00 +16°C° 0 mm 5 m/S 765 mmHg 62%
    20:00 +15°C° 0 mm 4 m/S 765 mmHg 66%
    21:00 +15°C° 0 mm 4 m/S 766 mmHg 70%
    22:00 +14°C° 0 mm 3 m/S 766 mmHg 75%
    23:00 +13°C° 0 mm 3 m/S 766 mmHg 77%

    27 August, Sonntag

    Zeit Temperatur Niederschläge Wind Luftdruck Luftfeuchtigkeit
    00:00 +13°C° 0 mm 3 m/S 765 mmHg 80%
    01:00 +12°C° 0 mm 3 m/S 765 mmHg 83%
    02:00 +12°C° 0,1 mm 3 m/S 765 mmHg 85%
    03:00 +12°C° 0,1 mm 3 m/S 765 mmHg 86%
    04:00 +12°C° 0,1 mm 3 m/S 765 mmHg 88%
    05:00 +12°C° 0,1 mm 3 m/S 766 mmHg 86%
    06:00 +12°C° 0,1 mm 4 m/S 766 mmHg 84%
    07:00 +12°C° 0,1 mm 4 m/S 766 mmHg 82%
    08:00 +15°C° 0,1 mm 4 m/S 766 mmHg 72%
    09:00 +18°C° 0,1 mm 4 m/S 766 mmHg 61%
    10:00 +21°C° 0,1 mm 4 m/S 766 mmHg 50%
    11:00 +22°C° 0,1 mm 4 m/S 765 mmHg 47%
    12:00 +23°C° 0,1 mm 4 m/S 765 mmHg 44%
    13:00 +25°C° 0,1 mm 4 m/S 764 mmHg 42%
    14:00 +23°C° 0,1 mm 5 m/S 764 mmHg 45%
    15:00 +23°C° 0,1 mm 5 m/S 764 mmHg 49%
    16:00 +22°C° 0,1 mm 5 m/S 764 mmHg 52%
    17:00 +20°C° 0,2 mm 5 m/S 764 mmHg 61%
    18:00 +19°C° 0,2 mm 4 m/S 764 mmHg 69%
    19:00 +17°C° 0,2 mm 4 m/S 765 mmHg 77%
    20:00 +15°C° 0,1 mm 4 m/S 765 mmHg 79%
    21:00 +16°C° 0,1 mm 3 m/S 765 mmHg 82%
    22:00 +14°C° 0,1 mm 3 m/S 765 mmHg 84%
    23:00 +15°C° 0,1 mm 2 m/S 765 mmHg 85%
    Mehr zeigen